When you browse on this site, cookies collect data to enhance your experience and personalize the content and advertising you see.
Visit our Privacy Policy to learn more. By continuing to use the site, you agree to this use of cookies and data.
  • In Sweden
  • List of Countries
  • For 7 days
  • Water Temperature
  • Weather Map
  • Weather Widgets
  • user-avatar
    Login

    Hourly Weather Cleveland Heights

    Today, 3 June, Wednesday

    Time Temperature Precipitation Wind Pressure Humidity
    00:00 +24°C° 0 mm 6 mps 733 mmHg 83%
    01:00 +23°C° 0 mm 6 mps 733 mmHg 83%
    02:00 +23°C° 0.7 mm 6 mps 733 mmHg 85%
    03:00 +23°C° 0.7 mm 6 mps 732 mmHg 88%
    04:00 +22°C° 0.7 mm 7 mps 732 mmHg 90%
    05:00 +22°C° 0.8 mm 7 mps 732 mmHg 91%
    06:00 +22°C° 0.8 mm 6 mps 732 mmHg 92%
    07:00 +22°C° 0.8 mm 6 mps 732 mmHg 93%
    08:00 +23°C° 0.9 mm 7 mps 732 mmHg 90%
    09:00 +23°C° 0.9 mm 7 mps 731 mmHg 88%
    10:00 +24°C° 0.9 mm 8 mps 731 mmHg 85%
    11:00 +26°C° 0.4 mm 7 mps 731 mmHg 81%
    12:00 +27°C° 0.4 mm 7 mps 731 mmHg 77%
    13:00 +28°C° 0.4 mm 6 mps 731 mmHg 72%
    14:00 +27°C° 1 mm 6 mps 731 mmHg 76%
    15:00 +26°C° 1 mm 6 mps 731 mmHg 79%
    16:00 +26°C° 1 mm 5 mps 730 mmHg 83%
    17:00 +25°C° 0.8 mm 4 mps 730 mmHg 84%
    18:00 +25°C° 0.8 mm 4 mps 731 mmHg 84%
    19:00 +24°C° 0.8 mm 3 mps 731 mmHg 85%
    20:00 +22°C° 0.1 mm 3 mps 731 mmHg 87%
    21:00 +21°C° 0.1 mm 2 mps 731 mmHg 88%
    22:00 +20°C° 0.1 mm 2 mps 731 mmHg 90%
    23:00 +20°C° 0 mm 2 mps 731 mmHg 91%

    Tomorrow, 4 June, Thursday

    Time Temperature Precipitation Wind Pressure Humidity
    00:00 +20°C° 0 mm 2 mps 732 mmHg 91%
    01:00 +20°C° 0 mm 2 mps 732 mmHg 92%
    02:00 +19°C° 0 mm 2 mps 732 mmHg 92%
    03:00 +19°C° 0 mm 2 mps 732 mmHg 93%
    04:00 +19°C° 0 mm 2 mps 732 mmHg 93%
    05:00 +20°C° 0 mm 1 mps 733 mmHg 91%
    06:00 +21°C° 0 mm 1 mps 733 mmHg 88%
    07:00 +21°C° 0 mm 1 mps 733 mmHg 86%
    08:00 +23°C° 0 mm 1 mps 733 mmHg 76%
    09:00 +25°C° 0 mm 1 mps 733 mmHg 66%
    10:00 +27°C° 0 mm 1 mps 734 mmHg 56%
    11:00 +28°C° 0.1 mm 1 mps 734 mmHg 56%
    12:00 +28°C° 0.1 mm 2 mps 734 mmHg 55%
    13:00 +29°C° 0.1 mm 2 mps 734 mmHg 55%
    14:00 +29°C° 0.1 mm 2 mps 733 mmHg 54%
    15:00 +28°C° 0.1 mm 2 mps 733 mmHg 54%
    16:00 +28°C° 0.1 mm 3 mps 733 mmHg 53%
    17:00 +27°C° 0 mm 2 mps 733 mmHg 58%
    18:00 +25°C° 0 mm 2 mps 733 mmHg 63%
    19:00 +24°C° 0 mm 2 mps 733 mmHg 67%
    20:00 +23°C° 0 mm 2 mps 733 mmHg 72%
    21:00 +22°C° 0 mm 1 mps 734 mmHg 76%
    22:00 +20°C° 0 mm 1 mps 734 mmHg 81%
    23:00 +20°C° 0 mm 1 mps 734 mmHg 83%

    Day after tomorrow, 5 June, Friday

    Time Temperature Precipitation Wind Pressure Humidity
    00:00 +20°C° 0 mm 1 mps 734 mmHg 86%
    01:00 +20°C° 0 mm 1 mps 734 mmHg 89%
    02:00 +20°C° 0 mm 1 mps 734 mmHg 90%
    03:00 +19°C° 0 mm 1 mps 734 mmHg 91%
    04:00 +19°C° 0 mm 1 mps 734 mmHg 92%
    05:00 +20°C° 0 mm 1 mps 734 mmHg 88%
    06:00 +21°C° 0 mm 1 mps 734 mmHg 84%
    07:00 +22°C° 0 mm 1 mps 735 mmHg 80%
    08:00 +24°C° 0 mm 1 mps 735 mmHg 69%
    09:00 +26°C° 0 mm 2 mps 735 mmHg 58%
    10:00 +28°C° 0 mm 2 mps 735 mmHg 47%
    11:00 +29°C° 0 mm 2 mps 735 mmHg 45%
    12:00 +30°C° 0 mm 1 mps 735 mmHg 43%
    13:00 +31°C° 0 mm 1 mps 734 mmHg 41%
    14:00 +31°C° 0.1 mm 2 mps 734 mmHg 46%
    15:00 +31°C° 0.1 mm 2 mps 734 mmHg 51%
    16:00 +31°C° 0.1 mm 2 mps 733 mmHg 57%
    17:00 +29°C° 1 mm 2 mps 733 mmHg 65%
    18:00 +27°C° 1 mm 2 mps 733 mmHg 73%
    19:00 +26°C° 1 mm 2 mps 733 mmHg 80%
    20:00 +25°C° 0.1 mm 2 mps 733 mmHg 82%
    21:00 +24°C° 0.1 mm 2 mps 733 mmHg 84%
    22:00 +24°C° 0.1 mm 3 mps 733 mmHg 85%
    23:00 +22°C° 0 mm 3 mps 733 mmHg 87%

    6 June, Saturday

    Time Temperature Precipitation Wind Pressure Humidity
    00:00 +22°C° 0 mm 3 mps 733 mmHg 89%
    01:00 +22°C° 0 mm 4 mps 733 mmHg 90%
    02:00 +21°C° 0 mm 3 mps 733 mmHg 91%
    03:00 +20°C° 0 mm 3 mps 733 mmHg 92%
    04:00 +20°C° 0 mm 3 mps 733 mmHg 93%
    05:00 +20°C° 0 mm 3 mps 733 mmHg 92%
    06:00 +20°C° 0 mm 3 mps 733 mmHg 91%
    07:00 +20°C° 0 mm 3 mps 733 mmHg 89%
    08:00 +22°C° 0 mm 3 mps 734 mmHg 80%
    09:00 +23°C° 0 mm 4 mps 734 mmHg 71%
    10:00 +26°C° 0 mm 4 mps 734 mmHg 62%
    11:00 +26°C° 0 mm 4 mps 734 mmHg 57%
    12:00 +26°C° 0 mm 5 mps 734 mmHg 52%
    13:00 +26°C° 0 mm 5 mps 734 mmHg 46%
    14:00 +26°C° 0 mm 5 mps 734 mmHg 50%
    15:00 +25°C° 0 mm 5 mps 734 mmHg 54%
    16:00 +25°C° 0 mm 4 mps 734 mmHg 57%
    17:00 +23°C° 0 mm 4 mps 734 mmHg 61%
    18:00 +21°C° 0 mm 4 mps 734 mmHg 65%
    19:00 +20°C° 0 mm 3 mps 735 mmHg 68%
    20:00 +19°C° 0 mm 3 mps 735 mmHg 68%
    21:00 +18°C° 0 mm 3 mps 736 mmHg 68%
    22:00 +17°C° 0 mm 3 mps 736 mmHg 68%
    23:00 +16°C° 0 mm 3 mps 736 mmHg 72%

    7 June, Sunday

    Time Temperature Precipitation Wind Pressure Humidity
    00:00 +14°C° 0 mm 3 mps 736 mmHg 75%
    01:00 +13°C° 0 mm 3 mps 736 mmHg 79%
    02:00 +13°C° 0 mm 3 mps 736 mmHg 83%
    03:00 +13°C° 0 mm 3 mps 737 mmHg 87%
    04:00 +12°C° 0 mm 4 mps 737 mmHg 90%
    05:00 +13°C° 0 mm 4 mps 737 mmHg 85%
    06:00 +14°C° 0 mm 4 mps 738 mmHg 80%
    07:00 +15°C° 0 mm 4 mps 738 mmHg 74%
    08:00 +17°C° 0 mm 4 mps 739 mmHg 66%
    09:00 +19°C° 0 mm 4 mps 739 mmHg 58%
    10:00 +20°C° 0 mm 4 mps 739 mmHg 50%
    11:00 +21°C° 0 mm 4 mps 739 mmHg 48%
    12:00 +21°C° 0 mm 4 mps 739 mmHg 46%
    13:00 +21°C° 0 mm 4 mps 739 mmHg 45%
    14:00 +21°C° 0 mm 4 mps 739 mmHg 46%
    15:00 +21°C° 0 mm 4 mps 739 mmHg 47%
    16:00 +20°C° 0 mm 4 mps 739 mmHg 49%
    17:00 +19°C° 0 mm 4 mps 739 mmHg 53%
    18:00 +18°C° 0 mm 4 mps 739 mmHg 58%
    19:00 +15°C° 0 mm 4 mps 739 mmHg 62%
    20:00 +14°C° 0 mm 4 mps 740 mmHg 69%
    21:00 +13°C° 0 mm 3 mps 740 mmHg 76%
    22:00 +11°C° 0 mm 3 mps 740 mmHg 83%
    23:00 +11°C° 0 mm 3 mps 740 mmHg 85%

    8 June, Monday

    Time Temperature Precipitation Wind Pressure Humidity
    00:00 +11°C° 0 mm 3 mps 740 mmHg 88%
    01:00 +11°C° 0 mm 3 mps 740 mmHg 90%
    02:00 +10°C° 0 mm 3 mps 740 mmHg 89%
    03:00 +10°C° 0 mm 3 mps 741 mmHg 88%
    04:00 +9°C° 0 mm 3 mps 741 mmHg 87%
    05:00 +10°C° 0 mm 3 mps 741 mmHg 83%
    06:00 +11°C° 0 mm 3 mps 741 mmHg 79%
    07:00 +12°C° 0 mm 3 mps 741 mmHg 75%
    08:00 +14°C° 0 mm 3 mps 741 mmHg 68%
    09:00 +17°C° 0 mm 3 mps 741 mmHg 61%
    10:00 +19°C° 0 mm 3 mps 741 mmHg 54%
    11:00 +21°C° 0 mm 4 mps 741 mmHg 51%
    12:00 +22°C° 0 mm 4 mps 741 mmHg 47%
    13:00 +25°C° 0 mm 4 mps 741 mmHg 44%
    14:00 +25°C° 0 mm 4 mps 740 mmHg 45%
    15:00 +25°C° 0 mm 4 mps 740 mmHg 46%
    16:00 +25°C° 0 mm 4 mps 740 mmHg 47%
    17:00 +23°C° 0 mm 4 mps 739 mmHg 55%
    18:00 +21°C° 0 mm 4 mps 739 mmHg 63%
    19:00 +20°C° 0 mm 4 mps 739 mmHg 70%
    20:00 +18°C° 0 mm 4 mps 739 mmHg 72%
    21:00 +16°C° 0 mm 3 mps 739 mmHg 74%
    22:00 +14°C° 0 mm 3 mps 739 mmHg 77%
    23:00 +14°C° 0 mm 3 mps 739 mmHg 78%
    Show more